Location: R�o Medio
(42.4667°N, 3.0167°W)
Time: 21:28:02
(UTC+00:00)

BREEZE-M DEB (TANK) - Pass Details

Date: 27 February 2020
Orbit: 327 x 14850 km, 49.5° (Epoch: 28 March)

Event Time Altitude Azimuth Distance (km) Brightness Sun altitude
Rises 19:29:40 0° 298° (WNW) 2,315 7.5 -17.5°
Reaches altitude 10° 19:31:01 10° 296° (WNW) 1,660 6.5 -17.8°
Maximum altitude 19:34:12 75° 210° (SSW) 800 3.8 -18.4°
Enters shadow 19:39:36 21° 128° (SE) 2,937 6.2 -19.4°
